Theta_e
325 325 328 330 332 335 336 338 343 346 345 346 349 348 350 351 350 349 349 344 346 348 347 345 345 344 340 336 338 337 335 333 333
324 325 326 329 332 335 336 338 342 346 346 345 350 350 349 349 351 351 351 348 344 344 344 343 345 343 341 337 336 339 336 333 332
325 325 326 328 329 333 337 338 342 347 348 346 348 352 352 351 350 351 353 350 347 343 343 344 343 344 341 339 335 338 336 333 333
324 325 326 328 329 332 336 339 342 347 348 347 349 351 352 351 352 350 350 353 350 348 343 344 342 345 342 341 337 336 337 333 334
325 326 325 329 330 330 333 338 340 344 350 349 351 353 353 352 353 353 351 350 353 350 348 345 345 344 343 342 340 338 338 335 335
323 322 322 325 327 329 332 336 339 343 349 351 352 353 353 354 354 354 353 352 351 352 349 347 346 345 344 342 342 340 339 338 334
321 322 322 323 326 330 332 336 338 342 346 352 353 354 353 352 353 356 356 354 352 351 352 346 347 346 345 344 341 341 340 338 334
321 321 322 323 325 330 332 336 338 341 345 351 353 354 354 353 354 355 357 356 354 352 351 352 347 346 345 344 342 340 339 338 336
318 316 320 320 326 330 333 336 338 341 343 350 353 353 354 356 356 355 355 356 356 353 352 351 348 346 344 341 343 334 335 338 336
318 317 318 322 326 330 334 336 339 340 343 348 352 352 354 355 355 355 356 356 356 355 352 351 348 345 344 342 343 330 331 335 338
318 317 319 324 327 329 334 336 339 342 343 345 350 351 353 354 355 354 356 356 355 355 355 351 350 346 345 344 344 327 328 333 339
309 314 316 320 327 331 331 334 336 339 340 343 344 348 350 353 354 353 355 354 354 354 355 353 352 349 346 344 344 325 324 330 336
319 319 317 315 324 331 336 337 335 336 337 340 342 344 346 352 353 354 353 355 355 355 355 353 353 350 348 341 344 322 320 330 335
319 326 324 318 314 320 333 338 338 335 336 337 341 345 346 347 352 353 354 356 357 355 354 353 352 347 346 343 337 325 317 319 331
320 322 331 327 319 316 318 334 342 337 336 340 342 342 343 346 350 353 354 357 356 354 353 349 345 341 339 339 335 324 314 315 319
338 340 342 343 337 343 343 330 343 341 341 341 344 344 346 349 351 353 357 356 354 350 348 345 340 339 337 335 335 328 315 313 315
338 341 343 345 345 344 344 345 343 342 345 345 348 347 354 356 356 355 356 354 352 348 343 340 339 336 334 334 335 331 324 320 317
337 337 339 342 344 346 346 347 347 352 353 354 353 354 353 351 347 339 322 320 333 339 327 337 337 336 336 334 331 326 319 318 321
334 336 338 338 338 338 341 343 342 345 349 350 348 340 338 335 330 326 324 322 316 306 305 310 310 316 325 318 318 307 304 302 303
327 333 335 335 335 337 339 341 340 341 340 341 341 335 332 330 328 328 326 324 323 317 313 305 299 300 304 308 308 302 300 300 300
Wind_Speed
21 24 24 25 25 25 24 23 22 22 22 21 19 19 18 15 14 9 8 8 7 9 9 8 9 9 9 9 8 7 6 4 4
23 27 25 28 26 25 25 22 24 25 23 22 20 20 17 16 14 13 9 9 8 8 8 7 10 11 11 10 9 8 7 5 5
26 23 27 25 22 25 23 23 23 23 24 25 23 22 18 16 16 15 10 9 12 10 9 9 11 12 12 10 9 8 8 6 5
26 25 22 25 24 23 25 23 21 22 21 22 20 20 18 17 15 15 14 11 11 12 12 12 12 13 12 12 10 9 9 7 7
24 16 14 20 25 21 20 21 21 23 21 22 21 20 19 19 16 15 15 16 13 12 13 13 13 13 14 13 12 10 11 11 9
10 8 8 7 9 18 20 21 22 21 21 23 22 20 20 18 17 16 18 17 16 13 13 11 12 13 15 14 13 12 12 11 9
17 13 12 12 12 16 19 21 22 22 22 22 22 21 21 20 19 19 18 17 16 15 15 12 12 12 13 14 13 13 13 11 10
14 19 17 15 18 17 19 20 21 20 19 20 22 22 22 22 20 19 17 16 16 15 15 14 11 12 11 10 11 10 13 12 12
14 10 8 9 17 23 23 22 21 22 22 22 22 21 23 20 19 18 18 17 16 15 13 14 10 12 12 11 10 14 16 15 11
11 9 11 11 17 21 21 23 25 23 22 20 22 23 20 20 19 19 19 17 15 15 16 11 11 11 12 13 13 17 20 19 10
12 9 7 9 10 12 20 20 19 19 18 20 21 22 20 19 19 19 17 17 17 15 13 15 12 12 14 13 13 18 19 20 10
8 10 9 7 10 11 7 15 18 16 16 18 19 20 20 20 20 19 18 19 17 15 14 13 13 13 14 14 11 17 16 15 7
4 1 5 7 8 9 17 15 12 18 21 19 20 20 22 20 19 19 19 18 17 14 14 13 11 12 13 14 11 15 17 14 8
2 2 2 5 4 6 13 14 17 18 15 19 23 22 20 18 19 20 18 16 12 14 14 12 12 11 9 10 10 10 16 15 9
5 2 1 1 2 8 7 8 17 18 19 23 21 17 15 16 16 14 13 17 14 14 13 12 10 10 6 5 7 11 11 14 8
8 6 7 7 3 5 2 9 12 17 22 17 14 15 16 15 15 16 16 17 15 13 12 10 10 10 11 6 5 6 14 13 11
8 7 7 6 7 8 4 4 8 10 6 12 16 17 16 14 15 14 14 11 12 12 11 11 12 10 8 6 6 5 4 4 5
7 7 7 6 7 7 8 9 5 8 10 13 11 12 15 15 11 11 9 7 5 8 2 11 12 11 11 11 8 6 9 10 7
6 7 7 8 7 6 7 10 11 12 2 17 19 15 10 7 8 11 8 10 11 20 21 10 12 15 11 3 12 18 15 13 11
6 7 9 8 6 6 5 7 11 12 15 6 11 11 10 10 11 7 11 10 14 9 14 9 16 12 11 10 12 14 13 15 14
Wind_Direction
197 198 196 197 196 197 196 190 185 184 186 187 185 186 189 192 194 199 198 183 183 192 187 185 173 176 175 179 175 172 169 165 174
198 199 198 199 197 196 195 189 187 186 184 189 188 190 189 196 197 200 192 187 179 181 179 175 174 179 184 185 176 171 164 178 184
199 196 199 203 199 197 196 192 189 185 186 187 188 191 191 194 199 201 191 179 183 186 188 186 180 186 188 187 177 173 169 183 186
202 191 190 199 203 198 195 192 183 187 186 189 189 190 193 195 198 199 201 196 192 187 188 192 187 187 188 190 184 179 180 188 181
205 188 177 195 204 198 190 191 185 187 183 188 191 189 192 197 195 192 200 205 202 189 194 195 191 187 191 192 191 182 185 192 196
173 179 207 210 198 194 188 188 190 188 184 191 190 188 191 195 197 195 201 204 202 192 200 190 188 186 190 192 189 187 195 194 192
186 184 206 188 187 197 193 189 189 191 190 190 188 190 192 195 197 201 203 203 201 197 199 190 192 189 189 192 188 191 194 191 195
202 194 190 180 201 199 196 190 191 193 192 190 188 190 195 198 198 201 202 202 201 199 201 203 189 186 188 183 185 191 190 192 198
195 210 202 195 222 197 190 187 189 190 191 190 187 194 202 194 197 198 201 200 198 196 195 200 182 184 180 176 192 190 186 189 194
231 210 184 183 201 194 195 190 187 189 190 183 189 198 197 198 194 198 200 197 194 196 196 179 181 175 176 188 198 185 188 191 190
209 221 249 163 165 199 194 193 191 189 185 185 190 197 197 196 196 196 195 195 198 192 187 189 179 181 188 191 198 184 184 189 186
195 181 195 183 168 173 186 197 187 183 181 190 194 196 198 197 196 193 190 197 195 188 181 187 187 187 186 190 191 183 175 168 171
127 215 199 199 189 183 175 196 200 179 183 188 196 199 202 196 193 192 192 191 191 186 185 187 183 184 185 187 175 168 161 168 174
251 233 31 168 212 211 184 181 171 186 196 194 202 204 200 191 190 190 189 183 178 181 184 173 178 170 160 160 159 163 167 175 177
213 240 328 167 169 203 228 190 177 186 190 203 202 196 195 194 192 184 177 174 174 173 169 170 157 139 122 132 158 152 169 183 186
58 35 16 353 196 154 134 178 204 185 205 193 179 177 184 178 177 172 172 172 165 159 165 152 164 154 139 167 162 157 171 185 180
65 48 42 25 27 0 349 185 189 216 186 182 169 174 164 163 162 157 158 161 163 156 158 164 155 149 132 153 152 144 129 170 130
59 54 37 39 52 48 22 2 358 139 142 143 140 144 148 138 132 125 104 79 101 149 121 171 150 142 150 154 160 173 178 161 162
50 55 46 40 33 41 40 37 21 10 354 142 136 130 130 109 119 121 107 101 78 27 67 5 103 124 148 134 135 141 167 142 140
47 56 52 46 8 31 47 82 69 50 333 295 116 123 113 103 112 102 121 111 82 73 28 55 55 73 107 136 135 141 139 127 130